[[{"header":{"parameterUnit":"m.s-1","parameterCategory":1,"la1":30.2991,"la2":30.254,"lo1":-89.0895,"lo2":-89.0444,"dy":0.0017,"dx":0.0017,"nx":28,"ny":28,"refTime":"2024-02-17T03:00:00:Z","depth":0,"parameterNumber":2,"parameterNumberName":"U-component_of_WINDS"},"data":[0,0,0,0,0,0,0,0,0,0,0,0,0,0,0,0,0,0,0,0,0,0,0,0,0,0,0,0,0,0,0,0,0,0,0,0,0,0,0,0,0,0,0,0,0,0,0,0,0,0,0,0,0,0,0,0,0,0,-1.4874,-1.4874,0,-1.4891,-1.4891,-1.4891,-1.4852,-1.4851,-1.485,-1.4848,-1.4866,-1.4868,-1.487,0,0,0,0,0,0,0,0,0,0,0,0,0,-1.4809,-1.481,-1.4874,-1.4874,-1.4875,-1.4891,-1.4891,-1.4891,-1.4852,-1.4851,-1.4849,-1.4848,-1.4866,-1.4868,-1.487,0,0,0,0,0,0,0,0,0,0,0,0,0,-1.4832,-1.481,-1.4874,-1.4857,-1.4856,-1.4891,-1.4891,-1.4891,-1.4853,-1.4851,-1.4849,-1.4847,-1.4865,-1.4868,-1.487,-1.4923,0,0,-1.4878,-1.4879,0,0,0,0,0,0,0,0,-1.4831,-1.4835,-1.4859,-1.4858,-1.4857,-1.4867,-1.4874,-1.4902,-1.4853,-1.4854,-1.4848,-1.4846,-1.4868,-1.487,-1.4878,-1.4924,-1.4924,-1.4878,-1.4879,-1.488,-1.4881,0,0,0,0,0,0,0,-1.483,-1.4834,-1.4881,-1.486,-1.4858,-1.4849,-1.485,-1.488,-1.4871,-1.4854,-1.4851,-1.4853,-1.4867,-1.4875,-1.4878,-1.4925,-1.4878,-1.488,-1.4881,-1.4882,-1.5014,-1.5016,0,0,0,0,0,0,-1.483,-1.4833,-1.488,-1.4881,-1.4839,-1.4851,-1.4853,-1.4866,-1.4871,-1.487,-1.4855,-1.4851,-1.4872,-1.4875,-1.4878,-1.494,-1.488,-1.4883,-1.4884,-1.5012,-1.5014,-1.5017,0,0,0,0,0,0,-1.4829,-1.4835,-1.488,-1.4856,-1.4861,-1.4854,-1.487,-1.4867,-1.4875,-1.4872,-1.487,-1.4865,-1.4871,-1.4875,-1.4912,-1.494,-1.4884,-1.4886,-1.501,-1.5013,-1.5015,-1.5065,0,0,0,0,0,0,-1.4827,-1.4834,-1.4855,-1.4857,-1.4863,-1.4913,-1.4871,-1.4869,-1.488,-1.4875,-1.4881,-1.488,-1.487,-1.4908,-1.4914,-1.4943,-1.4888,-1.5007,-1.5011,-1.5015,-1.5061,-1.5069,-1.5077,0,0,0,0,0,-1.4825,-1.4868,-1.4856,-1.4862,-1.4888,-1.4915,-1.4918,-1.4905,-1.4882,-1.4902,-1.49,-1.488,-1.4936,-1.4912,-1.4919,-1.4949,-1.5005,-1.501,-1.5014,-1.5057,-1.5068,-1.5076,0,0,0,0,0,0,-1.487,-1.4868,-1.4854,-1.49,-1.4908,-1.4908,-1.4933,-1.4917,-1.4932,-1.4927,-1.491,-1.4912,-1.4952,-1.4954,-1.4927,-1.4999,-1.4967,-1.4973,-1.4997,-1.5007,-1.5015,-1.5014,-1.489,0,0,0,0,0,-1.4885,-1.4907,-1.4904,-1.4944,-1.4949,-1.4941,-1.4952,-1.4941,-1.4949,-1.4952,-1.4952,-1.4961,-1.498,-1.4993,-1.5011,-1.506,-1.5061,-1.5084,-1.5092,-1.5098,-1.5104,-1.513,-1.514,-1.5031,-1.5031,-1.5031,0,0,-1.4916,-1.4918,-1.4933,-1.4954,-1.4958,-1.4982,-1.4944,-1.497,-1.4987,-1.4956,-1.4991,-1.4991,-1.5,-1.5043,-1.5062,-1.5045,-1.5134,-1.5104,-1.5109,-1.5111,-1.5136,-1.5146,-1.5155,-1.5035,-1.5034,-1.5033,0,0,-1.4986,-1.499,-1.5023,-1.5029,-1.5036,-1.503,-1.5038,-1.5041,-1.504,-1.5075,-1.5052,-1.5071,-1.5105,-1.5112,-1.512,-1.5191,-1.5173,-1.5197,-1.5239,-1.5264,-1.5273,-1.528,-1.5306,-1.5315,-1.5202,-1.5202,-1.5203,0,-1.5025,-1.5059,-1.5043,-1.5071,-1.508,-1.5052,-1.5086,-1.5092,-1.5106,-1.5113,-1.5094,-1.5136,-1.5139,-1.5183,-1.5201,-1.5208,-1.5216,-1.5197,-1.5273,-1.528,-1.5287,-1.5311,-1.5321,-1.5205,-1.5205,-1.5205,-1.5204,0,-1.5106,-1.513,-1.5156,-1.5169,-1.5182,-1.5212,-1.5201,-1.5215,-1.5203,-1.5199,-1.5234,-1.5237,-1.5255,-1.5264,-1.5253,-1.5307,-1.5296,-1.5275,-1.5242,-1.53,-1.5323,-1.5332,-1.521,-1.5209,-1.5208,-1.5207,0,0,-1.5206,-1.5209,-1.5219,-1.5224,-1.523,-1.5248,-1.5277,-1.5294,-1.5307,-1.5316,-1.5341,-1.5369,-1.535,-1.5358,-1.5347,-1.5369,-1.5425,-1.5345,-1.5345,-1.5361,-1.5485,-1.5502,-1.5513,-1.5413,-1.5415,-1.5416,-1.5485,0,-1.5276,-1.5326,-1.5312,-1.5362,-1.5384,-1.5357,-1.5382,-1.5388,-1.5385,-1.5403,-1.5399,-1.5419,-1.5392,-1.5397,-1.5417,-1.5414,-1.545,-1.5409,-1.5436,-1.5437,-1.5436,-1.5525,-1.5542,-1.5607,-1.5494,-1.5495,-1.5496,0,-1.5364,-1.5376,-1.5429,-1.543,-1.5439,-1.5462,-1.5476,-1.5493,-1.5499,-1.5495,-1.5504,-1.5488,-1.5517,-1.5482,-1.5522,-1.5494,-1.5503,-1.5503,-1.5506,-1.5509,-1.5471,-1.5531,-1.5628,-1.5638,-1.551,-1.5509,-1.5508,0,-1.5432,-1.5462,-1.5497,-1.5502,-1.5505,-1.5522,-1.5523,-1.5527,-1.5538,-1.555,-1.5557,-1.5572,-1.5581,-1.5593,-1.5581,-1.5557,-1.5622,-1.5587,-1.562,-1.562,-1.5636,-1.5636,-1.5737,-1.5641,-1.5641,-1.5641,-1.564,0,-1.5512,-1.5545,-1.5528,-1.555,-1.5586,-1.5569,-1.5605,-1.5604,-1.5608,-1.5629,-1.5606,-1.5626,-1.5609,-1.5627,-1.5618,-1.5652,-1.5656,-1.5654,-1.5651,-1.5656,-1.5657,-1.5663,-1.5659,-1.5643,-1.5643,-1.5642,-1.5642,0,-1.5596,-1.5585,-1.5622,-1.562,-1.5621,-1.5648,-1.5646,-1.5666,-1.566,-1.5687,-1.5692,-1.5683,-1.5704,-1.5693,-1.5714,-1.5708,-1.5752,-1.5743,-1.575,-1.5748,-1.5782,-1.5779,-1.5892,-1.5906,-1.58,-1.5801,-1.5802,0,-1.5648,-1.5673,-1.5673,-1.5686,-1.5689,-1.5709,-1.5719,-1.5703,-1.5715,-1.5723,-1.5742,-1.576,-1.5775,-1.5808,-1.5804,-1.582,-1.5811,-1.585,-1.5814,-1.5818,-1.5813,-1.5812,-1.5814,-1.5858,-1.5859,-1.586,-1.5861,0,-1.5741,-1.5735,-1.5751,-1.5765,-1.5778,-1.5788,-1.5797,-1.5808,-1.5792,-1.5807,-1.5827,-1.5838,-1.5859,-1.5878,-1.5891,-1.5893,-1.5874,-1.5872,-1.588,-1.5887,-1.589,-1.5889,-1.5771,-1.587,-1.5869,-1.5868,-1.5867,-1.5867,-1.5811,-1.5832,-1.5836,-1.5854,-1.5858,-1.5867,-1.5885,-1.5881,-1.5898,-1.5914,-1.5903,-1.5927,-1.5931,-1.5948,-1.5951,-1.597,-1.5955,-1.5967,-1.597,-1.5974,-1.5979,-1.5886,-1.5972,-1.5972,-1.5972,-1.5972,-1.5971,0,-1.5904,-1.5905,-1.5922,-1.5934,-1.5949,-1.5929,-1.5937,-1.595,-1.5972,-1.5977,-1.5991,-1.6014,-1.6032,-1.6028,-1.6044,-1.606,-1.6052,-1.6064,-1.6064,-1.6064,-1.5991,-1.5983,-1.6071,-1.6071,-1.6071,-1.6071,-1.6071,-1.6071,-1.5955,-1.5989,-1.5982,-1.6018,-1.6018,-1.6041,-1.6048,-1.6055,-1.6059,-1.6086,-1.61,-1.6097,-1.6099,-1.6115,-1.613,-1.6128,-1.6135,-1.6152,-1.6147,-1.6079,-1.607,-1.606,-1.6052,-1.6153,-1.6153,-1.6219,-1.6219,-1.622]},{"header":{"parameterUnit":"m.s-1","parameterCategory":1,"la1":30.2991,"la2":30.254,"lo1":-89.0895,"lo2":-89.0444,"dy":0.0017,"dx":0.0017,"nx":28,"ny":28,"refTime":"2024-02-17T03:00:00:Z","depth":0,"parameterNumber":3,"parameterNumberName":"V-component_of_WINDS"},"data":[0,0,0,0,0,0,0,0,0,0,0,0,0,0,0,0,0,0,0,0,0,0,0,0,0,0,0,0,0,0,0,0,0,0,0,0,0,0,0,0,0,0,0,0,0,0,0,0,0,0,0,0,0,0,0,0,0,0,-8.228,-8.2281,0,-8.2323,-8.2323,-8.2324,-8.2229,-8.2226,-8.2223,-8.222,-8.2258,-8.2262,-8.2265,0,0,0,0,0,0,0,0,0,0,0,0,0,-8.2112,-8.2115,-8.228,-8.2281,-8.2281,-8.2323,-8.2323,-8.2324,-8.223,-8.2226,-8.2222,-8.2219,-8.2257,-8.2261,-8.2266,0,0,0,0,0,0,0,0,0,0,0,0,0,-8.2173,-8.2117,-8.228,-8.224,-8.2236,-8.2323,-8.2324,-8.2324,-8.2231,-8.2226,-8.2221,-8.2217,-8.2255,-8.2261,-8.2266,-8.2393,0,0,-8.2284,-8.2286,0,0,0,0,0,0,0,0,-8.2169,-8.2179,-8.2245,-8.2243,-8.2239,-8.2266,-8.2278,-8.2347,-8.2232,-8.2233,-8.222,-8.2215,-8.2264,-8.2269,-8.2286,-8.2394,-8.2396,-8.2284,-8.2288,-8.229,-8.2292,0,0,0,0,0,0,0,-8.2165,-8.2177,-8.2297,-8.2246,-8.2242,-8.2217,-8.2221,-8.229,-8.2273,-8.2232,-8.2225,-8.2232,-8.2261,-8.2281,-8.2287,-8.2396,-8.2284,-8.2289,-8.2293,-8.2295,-8.2611,-8.2615,0,0,0,0,0,0,-8.2167,-8.2174,-8.2296,-8.2298,-8.2193,-8.2224,-8.2228,-8.2262,-8.2272,-8.2269,-8.2236,-8.2227,-8.2274,-8.228,-8.2288,-8.2437,-8.229,-8.2296,-8.2299,-8.2606,-8.2612,-8.2617,0,0,0,0,0,0,-8.2164,-8.2179,-8.2294,-8.2234,-8.2247,-8.2232,-8.2271,-8.2265,-8.2285,-8.2275,-8.2271,-8.226,-8.227,-8.228,-8.2368,-8.2436,-8.2298,-8.2304,-8.26,-8.2608,-8.2614,-8.2735,0,0,0,0,0,0,-8.2159,-8.2178,-8.2227,-8.2236,-8.2251,-8.2375,-8.2275,-8.2269,-8.2296,-8.2285,-8.2296,-8.2293,-8.2267,-8.236,-8.2374,-8.2442,-8.2308,-8.2594,-8.2603,-8.2612,-8.2725,-8.2746,-8.2764,0,0,0,0,0,-8.2154,-8.2258,-8.223,-8.2245,-8.2312,-8.2379,-8.2387,-8.2357,-8.2302,-8.235,-8.2344,-8.2293,-8.2427,-8.237,-8.2384,-8.2455,-8.2589,-8.2601,-8.2611,-8.2716,-8.2742,-8.2763,0,0,0,0,0,0,-8.2255,-8.2258,-8.2227,-8.2338,-8.236,-8.2363,-8.2423,-8.2385,-8.2421,-8.2409,-8.2368,-8.2371,-8.2467,-8.247,-8.2406,-8.2578,-8.2498,-8.2513,-8.2573,-8.2597,-8.2616,-8.2614,-8.2313,0,0,0,0,0,-8.229,-8.2347,-8.2346,-8.2444,-8.2456,-8.2439,-8.2467,-8.2442,-8.2461,-8.2469,-8.2469,-8.2489,-8.2535,-8.2566,-8.2608,-8.2725,-8.2726,-8.2781,-8.2801,-8.2817,-8.283,-8.2892,-8.2917,-8.2654,-8.2653,-8.2653,0,0,-8.2363,-8.2372,-8.241,-8.2464,-8.2478,-8.2536,-8.2446,-8.2511,-8.2554,-8.2478,-8.2562,-8.2563,-8.2582,-8.2686,-8.2731,-8.2691,-8.2903,-8.2831,-8.2844,-8.2848,-8.2906,-8.2931,-8.2953,-8.2661,-8.266,-8.2659,0,0,-8.2527,-8.2539,-8.2623,-8.2639,-8.2662,-8.265,-8.267,-8.268,-8.2679,-8.2763,-8.2708,-8.2757,-8.2838,-8.2854,-8.2872,-8.3044,-8.2999,-8.3059,-8.316,-8.3221,-8.3242,-8.326,-8.3322,-8.3344,-8.3072,-8.3072,-8.3072,0,-8.2614,-8.2702,-8.267,-8.274,-8.2765,-8.2702,-8.2786,-8.2802,-8.2837,-8.2855,-8.281,-8.2911,-8.2919,-8.3026,-8.3068,-8.3085,-8.3106,-8.3057,-8.3242,-8.326,-8.3276,-8.3334,-8.3358,-8.3079,-8.3078,-8.3078,-8.3077,0,-8.2808,-8.287,-8.2934,-8.2972,-8.3005,-8.3081,-8.3059,-8.3096,-8.3068,-8.3061,-8.3147,-8.3155,-8.3198,-8.3222,-8.3194,-8.3325,-8.33,-8.3249,-8.3168,-8.3309,-8.3363,-8.3385,-8.3089,-8.3087,-8.3085,-8.3083,0,0,-8.3035,-8.3057,-8.3081,-8.3098,-8.3119,-8.3165,-8.3238,-8.3283,-8.3315,-8.3341,-8.3401,-8.3472,-8.3426,-8.3447,-8.3421,-8.3475,-8.3612,-8.3418,-8.3418,-8.3454,-8.3756,-8.3795,-8.3821,-8.3582,-8.3586,-8.3589,-8.3755,0,-8.3197,-8.3326,-8.33,-8.3425,-8.3481,-8.3423,-8.3487,-8.3506,-8.3501,-8.3547,-8.354,-8.3591,-8.3526,-8.3539,-8.359,-8.3584,-8.3672,-8.3572,-8.3636,-8.3639,-8.3634,-8.3849,-8.3889,-8.4045,-8.3776,-8.3779,-8.3782,0,-8.3403,-8.344,-8.3572,-8.3586,-8.3609,-8.3667,-8.3706,-8.3751,-8.3772,-8.3764,-8.379,-8.3754,-8.3825,-8.3744,-8.3841,-8.3774,-8.3798,-8.38,-8.3805,-8.3809,-8.3719,-8.386,-8.4094,-8.4118,-8.3815,-8.3812,-8.381,0,-8.3556,-8.3639,-8.3729,-8.3745,-8.3763,-8.3806,-8.3815,-8.3831,-8.386,-8.3894,-8.3912,-8.3953,-8.3975,-8.4007,-8.3983,-8.3926,-8.4084,-8.4001,-8.4079,-8.408,-8.4115,-8.4113,-8.4357,-8.4131,-8.4131,-8.413,-8.413,0,-8.374,-8.3823,-8.3798,-8.3853,-8.3944,-8.3914,-8.4004,-8.4006,-8.4021,-8.4075,-8.4026,-8.4077,-8.4042,-8.4089,-8.407,-8.4154,-8.4164,-8.4159,-8.4153,-8.4164,-8.4165,-8.4179,-8.4168,-8.4136,-8.4135,-8.4134,-8.4133,0,-8.3926,-8.3913,-8.4007,-8.4018,-8.4023,-8.4089,-8.4097,-8.4148,-8.414,-8.4209,-8.4223,-8.421,-8.4263,-8.4243,-8.4298,-8.4286,-8.4393,-8.4373,-8.4387,-8.4382,-8.4462,-8.4455,-8.4724,-8.4758,-8.451,-8.4513,-8.4515,0,-8.4044,-8.4107,-8.4126,-8.416,-8.4174,-8.4228,-8.4258,-8.423,-8.4263,-8.4292,-8.434,-8.439,-8.4428,-8.4516,-8.451,-8.4553,-8.4533,-8.4625,-8.4539,-8.4548,-8.4535,-8.4532,-8.4538,-8.4642,-8.4645,-8.4647,-8.4649,0,-8.4256,-8.4247,-8.4294,-8.4339,-8.4377,-8.4411,-8.4439,-8.4469,-8.4443,-8.4482,-8.4538,-8.4568,-8.4627,-8.4677,-8.4716,-8.4722,-8.4682,-8.4676,-8.4696,-8.4708,-8.4714,-8.4712,-8.4434,-8.467,-8.4668,-8.4666,-8.4665,-8.4664,-8.4412,-8.4465,-8.4488,-8.4542,-8.4561,-8.459,-8.4639,-8.4638,-8.4685,-8.4733,-8.4713,-8.4777,-8.4796,-8.4844,-8.4857,-8.4906,-8.487,-8.49,-8.4907,-8.4915,-8.4926,-8.4707,-8.4913,-8.4912,-8.4911,-8.4911,-8.491,0,-8.4621,-8.4633,-8.4684,-8.4727,-8.477,-8.473,-8.476,-8.4798,-8.4856,-8.4878,-8.4918,-8.4982,-8.5031,-8.503,-8.5075,-8.5114,-8.5097,-8.5127,-8.5124,-8.5126,-8.4955,-8.4933,-8.5141,-8.5141,-8.5141,-8.5141,-8.514,-8.514,-8.4735,-8.4825,-8.4819,-8.4917,-8.4927,-8.4993,-8.5014,-8.5039,-8.5057,-8.5132,-8.5174,-8.5173,-8.5186,-8.5232,-8.5275,-8.5273,-8.5291,-8.5329,-8.5321,-8.5161,-8.5138,-8.5116,-8.5095,-8.5334,-8.5334,-8.5487,-8.5489,-8.549]}]]